User: anonymous
Location: PFO Observatory
(45.2937°N, 66.0991°W)
Time: 04:39:35
(UTC-03:00)
Language:

Cosmos 1151 Rocket - Orbit

View from above orbital plane
View from above orbital plane
View from above satellite
View from above satellite

Ground track
Ground track

The orbit data is extracted from the following two-line orbital elements,

1 11672U 80005B   14203.82376017  .00000160  00000-0  14997-4 0   682
2 11672 082.5170 359.8337 0016069 231.7675 244.9753 14.87194391865755
Epoch (UTC): 22 July 2014 19:46:12
Eccentricity: 0.0016069
inclination: 82.5170°
perigee height: 595 km
apogee height: 618 km
right ascension of ascending node: 359.8337°
argument of perigee: 231.7675°
revolutions per day: 14.87194391
mean anomaly at epoch: 244.9753°
orbit number at epoch: 86575

The dashed part of the orbit path shows where the satellite is in the earth's shadow,  

DLR